AOS48 EGNS-EGNH

Flight info

Callsign AOS48
Flight time N/A
Altitude 9000
Route IOM L10 WAL
Aircraft DA42/L-SBDGRY/S

Departure

Time 2026-04-26 17:54
Airport Isle of Man Airport (EGNS)

Arrival

Time N/A
Airport Blackpool Airport (EGNH)
Time Latitude Longitude Altitude Speed Heading
2026-04-26 17:50 54.08569 -4.62027 31 ft 17 kts 93°
2026-04-26 17:51 54.08551 -4.61795 24 ft 22 kts 95°
2026-04-26 17:51 54.08538 -4.61583 20 ft 3 kts 96°
2026-04-26 17:51 54.08538 -4.61581 20 ft 0 kts 95°
2026-04-26 17:53 54.08537 -4.61568 20 ft 7 kts 96°
2026-04-26 17:53 54.08506 -4.61436 18 ft 15 kts 153°
2026-04-26 17:54 54.08374 -4.62029 25 ft 75 kts 258°
2026-04-26 17:54 54.08243 -4.62999 262 ft 88 kts 257°
2026-04-26 17:54 54.08106 -4.64049 641 ft 91 kts 253°
2026-04-26 17:54 54.07986 -4.65082 1066 ft 92 kts 257°
2026-04-26 17:55 54.07843 -4.66158 1463 ft 91 kts 254°
2026-04-26 17:55 54.07725 -4.67231 1861 ft 94 kts 259°
2026-04-26 17:55 54.07639 -4.68335 2272 ft 93 kts 262°
2026-04-26 17:55 54.07531 -4.69426 2654 ft 95 kts 259°
2026-04-26 17:56 54.07408 -4.70518 3053 ft 93 kts 259°
2026-04-26 17:56 54.07109 -4.72672 3825 ft 94 kts 245°
2026-04-26 17:57 54.05891 -4.72823 4490 ft 112 kts 137°
2026-04-26 17:57 54.05464 -4.71708 4854 ft 110 kts 131°
2026-04-26 17:57 54.04994 -4.70667 5180 ft 112 kts 131°
2026-04-26 17:57 54.04536 -4.69602 5526 ft 111 kts 130°
2026-04-26 17:58 54.03247 -4.66270 6545 ft 113 kts 129°
2026-04-26 17:59 54.02411 -4.64006 7195 ft 113 kts 132°
2026-04-26 17:59 54.01931 -4.62950 7508 ft 113 kts 136°
2026-04-26 17:59 54.01440 -4.61937 7841 ft 112 kts 139°
2026-04-26 17:59 54.00920 -4.60936 8153 ft 113 kts 138°
2026-04-26 18:00 54.00402 -4.59930 8480 ft 113 kts 139°
2026-04-26 18:00 53.99913 -4.58856 8803 ft 116 kts 133°
2026-04-26 18:00 53.99441 -4.57751 9140 ft 116 kts 135°
2026-04-26 18:00 53.98935 -4.56688 9460 ft 117 kts 139°
2026-04-26 18:01 53.98371 -4.55593 9624 ft 133 kts 134°
2026-04-26 18:01 53.97888 -4.54148 9788 ft 148 kts 119°
2026-04-26 18:01 53.97386 -4.52502 9742 ft 165 kts 129°
2026-04-26 18:01 53.96709 -4.50837 9656 ft 178 kts 131°
2026-04-26 18:02 53.95922 -4.49102 9360 ft 194 kts 136°
2026-04-26 18:02 53.95333 -4.47980 9400 ft 189 kts 140°
2026-04-26 18:02 53.94241 -4.45670 9399 ft 190 kts 129°
2026-04-26 18:02 53.93512 -4.43794 9346 ft 191 kts 128°
2026-04-26 18:03 53.92777 -4.41911 9292 ft 191 kts 128°
2026-04-26 18:03 53.92025 -4.40044 9239 ft 192 kts 129°
2026-04-26 18:03 53.91266 -4.38188 9180 ft 192 kts 129°
2026-04-26 18:03 53.90511 -4.36344 9127 ft 188 kts 129°
2026-04-26 18:04 53.89772 -4.34532 9075 ft 186 kts 129°
2026-04-26 18:04 53.89044 -4.32744 9088 ft 181 kts 129°
2026-04-26 18:04 53.88346 -4.31025 9193 ft 174 kts 129°
2026-04-26 18:05 53.86983 -4.27677 9263 ft 174 kts 129°
2026-04-26 18:05 53.86289 -4.25989 9265 ft 175 kts 129°
2026-04-26 18:05 53.85593 -4.24295 9261 ft 176 kts 129°
2026-04-26 18:05 53.84895 -4.22593 9263 ft 176 kts 129°
2026-04-26 18:06 53.84206 -4.20911 9260 ft 176 kts 129°
2026-04-26 18:06 53.83508 -4.19207 9262 ft 176 kts 129°
2026-04-26 18:06 53.82808 -4.17502 9255 ft 176 kts 129°
2026-04-26 18:06 53.82111 -4.15806 9261 ft 175 kts 129°
2026-04-26 18:07 53.81416 -4.14113 9260 ft 175 kts 129°
2026-04-26 18:07 53.80725 -4.12428 9255 ft 174 kts 129°
2026-04-26 18:07 53.80032 -4.10745 9261 ft 174 kts 129°
2026-04-26 18:07 53.79563 -4.09606 9261 ft 174 kts 129°
2026-04-26 18:08 53.78644 -4.07377 9261 ft 174 kts 129°
2026-04-26 18:08 53.77950 -4.05693 9262 ft 175 kts 129°
2026-04-26 18:08 53.77255 -4.04010 9261 ft 175 kts 129°
2026-04-26 18:08 53.76560 -4.02326 9261 ft 175 kts 129°
2026-04-26 18:09 53.75865 -4.00645 9261 ft 175 kts 129°
2026-04-26 18:09 53.75169 -3.98962 9261 ft 175 kts 129°
2026-04-26 18:09 53.74474 -3.97282 9259 ft 175 kts 129°
2026-04-26 18:09 53.73778 -3.95599 9264 ft 174 kts 129°
2026-04-26 18:10 53.73084 -3.93924 9264 ft 174 kts 129°
2026-04-26 18:10 53.72390 -3.92250 9263 ft 174 kts 129°
2026-04-26 18:10 53.71698 -3.90579 9263 ft 173 kts 129°
2026-04-26 18:10 53.71007 -3.88913 9262 ft 173 kts 129°
2026-04-26 18:11 53.70316 -3.87248 9256 ft 174 kts 128°
2026-04-26 18:11 53.69638 -3.85561 9256 ft 174 kts 128°
2026-04-26 18:11 53.68944 -3.83894 9256 ft 174 kts 129°
2026-04-26 18:11 53.68241 -3.82237 9265 ft 174 kts 129°
2026-04-26 18:12 53.67539 -3.80574 9261 ft 174 kts 129°
2026-04-26 18:12 53.66842 -3.78907 9265 ft 174 kts 128°
2026-04-26 18:12 53.66145 -3.77237 9266 ft 174 kts 128°
2026-04-26 18:12 53.65447 -3.75564 9265 ft 174 kts 129°
2026-04-26 18:13 53.64749 -3.73892 9265 ft 174 kts 128°
2026-04-26 18:13 53.64061 -3.72245 9265 ft 174 kts 128°
2026-04-26 18:13 53.63354 -3.70554 9268 ft 174 kts 128°
2026-04-26 18:13 53.62893 -3.69450 9265 ft 174 kts 129°
2026-04-26 18:14 53.61971 -3.67232 9266 ft 175 kts 125°
2026-04-26 18:14 53.61708 -3.65231 9271 ft 181 kts 85°
2026-04-26 18:14 53.62123 -3.63230 9282 ft 182 kts 65°
2026-04-26 18:14 53.62698 -3.61325 9279 ft 182 kts 63°
2026-04-26 18:15 53.63250 -3.59401 9275 ft 182 kts 66°
2026-04-26 18:15 53.63756 -3.57444 9274 ft 182 kts 68°
2026-04-26 18:15 53.64250 -3.55467 9212 ft 186 kts 68°
2026-04-26 18:15 53.64757 -3.53432 8998 ft 189 kts 68°
2026-04-26 18:16 53.65270 -3.51384 8790 ft 190 kts 68°
2026-04-26 18:16 53.66295 -3.47292 8379 ft 189 kts 68°
2026-04-26 18:16 53.66806 -3.45250 8172 ft 189 kts 68°
2026-04-26 18:17 53.67314 -3.43216 7972 ft 188 kts 68°
2026-04-26 18:17 53.67822 -3.41184 7771 ft 188 kts 68°
2026-04-26 18:17 53.68327 -3.39156 7571 ft 187 kts 68°
2026-04-26 18:17 53.68831 -3.37137 7371 ft 187 kts 68°
2026-04-26 18:18 53.69332 -3.35122 7177 ft 186 kts 68°
2026-04-26 18:18 53.69833 -3.33109 6987 ft 186 kts 68°
2026-04-26 18:18 53.70333 -3.31097 6790 ft 186 kts 68°
2026-04-26 18:18 53.70832 -3.29086 6583 ft 186 kts 68°
2026-04-26 18:19 53.71330 -3.27076 6383 ft 185 kts 68°
2026-04-26 18:19 53.71827 -3.25071 6175 ft 185 kts 68°
2026-04-26 18:19 53.72324 -3.23066 5969 ft 185 kts 68°
2026-04-26 18:19 53.72818 -3.21068 5765 ft 185 kts 69°
2026-04-26 18:20 53.73313 -3.19066 5540 ft 185 kts 69°
2026-04-26 18:20 53.73810 -3.17049 5291 ft 187 kts 69°
2026-04-26 18:20 53.74311 -3.15019 5035 ft 185 kts 69°
2026-04-26 18:20 53.74469 -3.14376 4952 ft 180 kts 69°
2026-04-26 18:21 53.75242 -3.11239 4517 ft 167 kts 69°
2026-04-26 18:21 53.75680 -3.09460 4262 ft 162 kts 69°
2026-04-26 18:21 53.76109 -3.07715 4007 ft 160 kts 69°
2026-04-26 18:21 53.76526 -3.06018 3759 ft 157 kts 69°
2026-04-26 18:22 53.76943 -3.04318 3511 ft 156 kts 69°
2026-04-26 18:22 53.77259 -3.02587 3246 ft 153 kts 86°
2026-04-26 18:22 53.77209 -3.00820 2998 ft 150 kts 97°
2026-04-26 18:22 53.77107 -2.99072 2742 ft 149 kts 98°
2026-04-26 18:23 53.77003 -2.97335 2493 ft 148 kts 98°
2026-04-26 18:23 53.76902 -2.95600 2234 ft 148 kts 97°
2026-04-26 18:23 53.76802 -2.93877 1997 ft 146 kts 96°
2026-04-26 18:23 53.76709 -2.92267 1987 ft 130 kts 96°
2026-04-26 18:24 53.76625 -2.90809 1979 ft 119 kts 96°
2026-04-26 18:24 53.76548 -2.89465 1983 ft 111 kts 96°
2026-04-26 18:24 53.76474 -2.88184 1978 ft 107 kts 97°
2026-04-26 18:24 53.76402 -2.86955 1979 ft 103 kts 97°
2026-04-26 18:25 53.76332 -2.85777 1982 ft 99 kts 96°
2026-04-26 18:25 53.76359 -2.84614 1993 ft 103 kts 69°
2026-04-26 18:25 53.76784 -2.83581 1997 ft 113 kts 49°
2026-04-26 18:25 53.77132 -2.82882 1995 ft 118 kts 49°
2026-04-26 18:26 53.77660 -2.81824 1997 ft 120 kts 49°
2026-04-26 18:26 53.78204 -2.80732 1996 ft 120 kts 49°
2026-04-26 18:26 53.78732 -2.79668 1998 ft 120 kts 49°
2026-04-26 18:26 53.79266 -2.78590 1997 ft 119 kts 49°
2026-04-26 18:27 53.79799 -2.77513 1997 ft 120 kts 49°
2026-04-26 18:27 53.80338 -2.76423 1988 ft 122 kts 49°
2026-04-26 18:27 53.80880 -2.75319 1986 ft 122 kts 52°
2026-04-26 18:27 53.81118 -2.73979 1983 ft 121 kts 96°
2026-04-26 18:28 53.80776 -2.72747 1993 ft 116 kts 138°
2026-04-26 18:28 53.80066 -2.72208 2000 ft 112 kts 178°
2026-04-26 18:28 53.79333 -2.72547 2000 ft 111 kts 217°
2026-04-26 18:28 53.78802 -2.73476 1996 ft 110 kts 230°
2026-04-26 18:29 53.78304 -2.74463 1999 ft 111 kts 231°
2026-04-26 18:29 53.77803 -2.75457 1998 ft 111 kts 231°
2026-04-26 18:29 53.77304 -2.76446 2000 ft 110 kts 231°
2026-04-26 18:29 53.76804 -2.77435 1995 ft 111 kts 230°
2026-04-26 18:30 53.76303 -2.78431 1996 ft 111 kts 234°
2026-04-26 18:30 53.76033 -2.79631 1998 ft 110 kts 265°
2026-04-26 18:30 53.76108 -2.80908 2005 ft 108 kts 289°
2026-04-26 18:30 53.76601 -2.81763 2073 ft 106 kts 332°
2026-04-26 18:31 53.77173 -2.82595 1970 ft 113 kts 295°
2026-04-26 18:31 53.77208 -2.83874 1972 ft 111 kts 253°
2026-04-26 18:31 53.76968 -2.85118 1969 ft 112 kts 251°
2026-04-26 18:31 53.76754 -2.86383 1964 ft 112 kts 263°
2026-04-26 18:32 53.76720 -2.87701 1968 ft 112 kts 271°
2026-04-26 18:32 53.76758 -2.89015 1972 ft 112 kts 273°
2026-04-26 18:32 53.76768 -2.90339 1952 ft 113 kts 268°
2026-04-26 18:32 53.76726 -2.91668 1890 ft 113 kts 265°
2026-04-26 18:33 53.76674 -2.92899 1811 ft 98 kts 270°
2026-04-26 18:33 53.76696 -2.93951 1688 ft 85 kts 273°
2026-04-26 18:33 53.76724 -2.94955 1528 ft 87 kts 273°
2026-04-26 18:33 53.76761 -2.95966 1361 ft 85 kts 276°
2026-04-26 18:34 53.76790 -2.96940 1173 ft 81 kts 276°
2026-04-26 18:34 53.76841 -2.97874 1013 ft 80 kts 279°
2026-04-26 18:34 53.76894 -2.98800 761 ft 76 kts 281°
2026-04-26 18:34 53.76967 -2.99663 430 ft 75 kts 285°
2026-04-26 18:35 53.77046 -3.00558 216 ft 79 kts 279°
2026-04-26 18:35 53.77089 -3.01473 69 ft 78 kts 277°
2026-04-26 18:35 53.77131 -3.02280 31 ft 53 kts 276°
2026-04-26 18:35 53.77166 -3.03082 68 ft 85 kts 275°
2026-04-26 18:36 53.77179 -3.04101 392 ft 88 kts 270°
2026-04-26 18:36 53.76907 -3.05069 692 ft 102 kts 220°
2026-04-26 18:36 53.76241 -3.05102 1092 ft 101 kts 149°
2026-04-26 18:36 53.75711 -3.04276 1372 ft 102 kts 132°
2026-04-26 18:37 53.75288 -3.03322 1654 ft 102 kts 125°
2026-04-26 18:37 53.74900 -3.02334 1944 ft 100 kts 126°
2026-04-26 18:37 53.74458 -3.01278 1975 ft 118 kts 132°
2026-04-26 18:37 53.73836 -3.00391 1966 ft 117 kts 147°
2026-04-26 18:38 53.73170 -2.99596 1968 ft 117 kts 147°
2026-04-26 18:38 53.72499 -2.98820 1968 ft 117 kts 148°
2026-04-26 18:38 53.71832 -2.98031 1966 ft 117 kts 147°
2026-04-26 18:38 53.71096 -2.97501 1965 ft 115 kts 164°
2026-04-26 18:39 53.70334 -2.97097 1963 ft 115 kts 164°
2026-04-26 18:39 53.69571 -2.96713 1959 ft 114 kts 165°
2026-04-26 18:39 53.68808 -2.96336 1959 ft 114 kts 165°
2026-04-26 18:39 53.68044 -2.95957 1958 ft 114 kts 165°
2026-04-26 18:40 53.67283 -2.95566 1958 ft 114 kts 165°
2026-04-26 18:40 53.66527 -2.95182 1986 ft 113 kts 165°
2026-04-26 18:40 53.65773 -2.94792 1986 ft 114 kts 164°
2026-04-26 18:40 53.65013 -2.94411 1988 ft 114 kts 165°
2026-04-26 18:41 53.64251 -2.94029 1987 ft 114 kts 165°
2026-04-26 18:41 53.63489 -2.93651 1988 ft 114 kts 165°
2026-04-26 18:41 53.62729 -2.93275 1987 ft 114 kts 165°
2026-04-26 18:41 53.62007 -2.92707 1986 ft 115 kts 153°
2026-04-26 18:42 53.61305 -2.92069 1987 ft 115 kts 153°
2026-04-26 18:42 53.60601 -2.91423 1988 ft 116 kts 153°
2026-04-26 18:42 53.59895 -2.90771 1985 ft 115 kts 153°
2026-04-26 18:42 53.59193 -2.90124 1983 ft 115 kts 153°
2026-04-26 18:43 53.58494 -2.89480 1987 ft 115 kts 152°
2026-04-26 18:43 53.57765 -2.88924 1986 ft 115 kts 159°
2026-04-26 18:43 53.57017 -2.88447 1987 ft 115 kts 162°
2026-04-26 18:43 53.56259 -2.88025 1987 ft 115 kts 163°
2026-04-26 18:44 53.55502 -2.87593 1988 ft 115 kts 161°
2026-04-26 18:44 53.54739 -2.87190 1977 ft 115 kts 179°
2026-04-26 18:44 53.54021 -2.87636 1980 ft 111 kts 225°
2026-04-26 18:44 53.53724 -2.88787 1983 ft 110 kts 270°
2026-04-26 18:45 53.54014 -2.89944 1984 ft 111 kts 315°
2026-04-26 18:45 53.54725 -2.90401 1982 ft 113 kts
2026-04-26 18:45 53.55386 -2.89872 2139 ft 105 kts 47°
2026-04-26 18:45 53.55631 -2.88746 2309 ft 104 kts 92°
2026-04-26 18:46 53.55350 -2.87671 2484 ft 101 kts 138°
2026-04-26 18:46 53.54724 -2.87248 2668 ft 97 kts 177°
2026-04-26 18:46 53.54053 -2.87194 2848 ft 96 kts 179°
2026-04-26 18:46 53.53380 -2.87151 2995 ft 100 kts 180°
2026-04-26 18:47 53.52642 -2.87113 3000 ft 111 kts 180°
2026-04-26 18:47 53.51841 -2.87080 2994 ft 118 kts 180°
2026-04-26 18:47 53.51013 -2.87047 2992 ft 120 kts 179°
2026-04-26 18:47 53.50172 -2.87014 2997 ft 121 kts 179°
2026-04-26 18:48 53.49327 -2.86983 2994 ft 122 kts 180°
2026-04-26 18:48 53.48450 -2.86950 2983 ft 126 kts 180°
2026-04-26 18:48 53.47578 -2.86920 2984 ft 125 kts 180°
2026-04-26 18:48 53.46709 -2.86889 2985 ft 125 kts 180°
2026-04-26 18:49 53.45841 -2.86856 2987 ft 124 kts 180°
2026-04-26 18:49 53.44977 -2.86788 2980 ft 125 kts 169°
2026-04-26 18:49 53.44283 -2.85948 2986 ft 128 kts 124°
2026-04-26 18:49 53.43912 -2.84603 2992 ft 127 kts 115°
2026-04-26 18:50 53.43571 -2.83225 2982 ft 129 kts 115°
2026-04-26 18:50 53.43211 -2.81779 2808 ft 137 kts 115°
2026-04-26 18:50 53.42839 -2.80318 2677 ft 135 kts 115°
2026-04-26 18:50 53.42465 -2.78874 2550 ft 135 kts 115°
2026-04-26 18:51 53.42091 -2.77428 2423 ft 135 kts 114°
2026-04-26 18:51 53.41714 -2.75991 2297 ft 135 kts 115°
2026-04-26 18:51 53.41335 -2.74553 2169 ft 135 kts 115°
2026-04-26 18:51 53.40950 -2.73117 2041 ft 135 kts 115°
2026-04-26 18:52 53.40565 -2.71703 1988 ft 129 kts 115°
2026-04-26 18:52 53.40195 -2.70358 1987 ft 125 kts 115°
2026-04-26 18:52 53.39834 -2.69047 1983 ft 123 kts 115°